www.pogodaiklimat.ru

ПОГОДА в Эврике, AK

  • Прогноз погоды в Эврике
  • Монитор погоды в Эврике
  • Климат в Эврике

АРХИВ ПОГОДЫ в Эврике

Время (UTC), дата Ветер
(напр.,м/с)
 
Видим.   Явления Облачность Т
(С)
Тd
(С)
f
(%)
Тe
(С)
Тes
(С)
Комфортность

P
(гПа)

Po
(гПа)
Тmin
(С)
Tmax
(С)
R
(мм)
SD
(см)
10:46 20.03 ЮЗ  16 км    8/8 690 м  -7.0  -11.0  73  -12  -12      895.0         
10:56 20.03 ЮЗ  16 км    8/8 690 м  -6.1  -10.6  70  -9  -9    1014.7  895.0  -7.2  -5.0     
11:43 20.03 З  16 км    5/5 630 м  -7.0  -11.0  73  -12  -12      894.7         
11:56 20.03 ЮЗ  16 км    2/2 630 м  -6.1  -10.6  70  -9  -9    1014.5  894.4         
12:56 20.03 СВ  16 км    ясно  -6.7  -10.6  74  -10  -10    1013.7  893.5         
13:56 20.03 СВ  16 км    8/8 1650 м  -6.7  -10.6  74  -12  -12    1013.0  892.6         
14:56 20.03 С  16 км    10/8 1950 м
[средняя] 
-7.2  -9.4  84  -14  -14    1012.3  891.7         
15:56 20.03 С  16 км    8/5 1650 м
[средняя] 
-6.1  -8.9  81  -13  -13    1010.9  890.8         
16:56 20.03 С  16 км    8/8 1410 м  -6.7  -8.9  84  -14  -14    1009.9  889.9  -7.8  -5.6     
17:56 20.03 С  16 км    5/5 1350 м  -5.0  -6.7  88  -12  -12    1009.2  889.3         
18:56 20.03 СВ  16 км    10/10 1110 м  -3.3  -5.6  84  -9  -9    1008.3  888.7         
19:56 20.03 С  16 км  неопределенные осадки  10/10 1140 м  -2.2  -4.4  85  -9  -9    1007.5  888.4         
20:16 20.03 С  3 км  слабый снег, дымка  10/10 600 м  -2.0  -4.0  86  -10  -10      888.1         
20:29 20.03 С  2 км  слабый снег, дымка  10/10 570 м  -2.0  -4.0  86  -8  -8      888.4         
20:56 20.03 С  2 км  слабый снег, дымка  10/10 510 м  -1.7  -3.3  89  -8  -8    1007.2  888.1         
21:21 20.03 С  2 км  слабый снег, дымка  10/10 570 м  -2.0  -3.0  93  -8  -8      887.5         
21:33 20.03 С  3 км  слабый снег, дымка  10/10 510 м  -1.0  -3.0  86  -7  -7      887.2         
21:54 20.03 С  2 км  слабый снег, дымка  10/10 510 м  -1.0  -3.0  86  -7  -7      887.2         
21:56 20.03 С  2 км  слабый снег, дымка  10/10 510 м  -1.1  -2.8  88  -7  -7    1006.0  887.2         
22:07 20.03 С  5 км  слабый снег, дымка  10/10 570 м  -1.0  -3.0  86  -8  -8      886.6         
22:14 20.03 С  4 км  слабый снег, дымка  10/10 570 м  -1.0  -3.0  86  -7  -7      886.6         
22:24 20.03 С  11 км  слабый снег  10/10 570 м  0.0  -3.0  80  -6  -6      886.6         
22:56 20.03 С  16 км  неопределенные осадки  10/10 1290 м  0.0  -2.8  81  -6  -6    1004.5  886.0  -6.7  0.0     
23:56 20.03 СВ  16 км    5/5 1080 м  0.0  -4.4  72  -3  -1    1004.1  885.7         
00:56 21.03 СВ  16 км    2/2 1050 м  +0.6  -4.4  69  -6  -5    1003.1  884.8         
01:56 21.03 СВ  16 км    ясно  +1.7  -3.9  66  -3  -2    1002.3  884.2         
02:56 21.03 нст  16 км    ясно  +2.2  -2.8  69  -2  -2    1002.2  884.2         
03:56 21.03 В  4
{9} 
16 км    2/2 570 м  +1.7  -1.7  78  -4  -4    1002.2  884.2         
04:56 21.03 ЮВ  5
{8} 
16 км    8/8 1350 м
[средняя] 
+2.2  -1.7  75  -4  -4    1002.6  884.5  0.0  +2.8     
05:56 21.03 ЮВ  7
{9} 
16 км    8/2 1380 м
[средняя] 
+2.2  -2.2  73  -4  -4    1002.2  884.5         
06:56 21.03 ЮВ  5
{12} 
16 км    ясно  +1.1  -1.7  82  -5  -5    1002.7  884.8         
07:56 21.03 нст  2
{8} 
16 км    2/0 2100 м
[средняя] 
+1.1  -2.8  75  -3  -3    1002.8  885.1         
08:56 21.03 С  16 км    ясно  -1.1  -3.3  85  -6  -6    1003.0  885.1         
09:56 21.03 В  16 км    ясно  +0.6  -5.6  63  -4  -4    1003.4  885.7         
10:56 21.03 СЗ  16 км    ясно  -3.3  -6.7  77  -9  -9    1004.5  886.3  -3.3  +2.8     
11:56 21.03 СЗ  16 км    ясно  -1.7  -5.6  75  -6  -6    1004.9  886.9         
12:56 21.03 СЗ  16 км    ясно  -2.2  -6.7  71  -7  -7    1005.2  887.2         
13:56 21.03 С  16 км    ясно  -2.2  -6.7  71  -7  -7    1005.4  887.5         
14:56 21.03 СЗ  16 км    ясно  -2.8  -7.2  72  -8  -8    1005.6  887.8         
15:56 21.03 С  16 км    ясно  -2.8  -6.7  74  -9  -9    1005.9  887.8         
16:56 21.03 С  16 км    ясно  -3.3  -7.2  74  -9  -9    1006.1  887.8  -3.9  -1.1     
17:56 21.03 С  16 км    ясно  -2.2  -6.7  71  -8  -7    1006.1  888.1         
18:56 21.03 С  16 км    ясно  -1.1  -6.1  69  -7  -5    1006.2  888.1         
19:56 21.03 С  16 км    ясно  -0.6  -5.6  69  -6  -4    1006.2  888.4         
20:56 21.03 С  16 км    ясно  +0.6  -5.6  63  -4  -1    1006.2  888.1         
21:56 21.03 С  16 км    5/0 3300 м
[средняя] 
+0.6  -5.6  63  -4  -1    1005.9  888.1         
22:56 21.03 С  16 км    ясно  +0.6  -5.6  63  -5  -3    1005.6  887.5  -3.9  +1.1     
23:56 21.03 С  16 км    ясно  +1.7  -5.6  58  -3  -0    1004.7  886.9         

 

Местоположение метеостанции Skelton Airport: широта 61.9333 долгота -147.1667 высота над уровнем моря 1002 м.

В архиве по умолчанию представлена погода в Эврике за последние 1-2 суток. Обновление информации о фактической погоде в базе происходит ежечасно! Архивные данные за месяц целиком и за предыдущие месяцы Вы можете получить, выбрав интересующий диапазон дат из раскрывающегося списка и нажав кнопку "Ввод!".

Внимание! Архив погоды МЕТАР в базе сайта хранится не более 60 дней. Нет смысла пытаться выбрать более раннюю дату.

Внимание! Время в таблицах - всемирное. Для получения местного времени необходимо прибавить поправку, которая в Эврике равна -9 ч.

Ветер - указаны скорость ветра в м/с и направление, откуда дует ветер: С - северный, СВ - северо-восточный, В - восточный, ЮВ - юго-восточный, Ю - южный, ЮЗ - юго-западный, З - западный, СЗ - северо-западный.
Видимость - горизонтальная дальность видимости в метрах или километрах. При видимости от 1 до 10 км при отсутствии осадков обычно наблюдается дымка, при ухудшении видимости до 1 км и менее - туман. В сухую погоду видимость может ухудшаться дымом, пылью или мглою.
Атмосферные явления - указаны явления, наблюдавшиеся в указанный момент времени.
Облачность - указаны через наклонную черту верхняя и нижняя облачность в баллах и высота нижней границы облаков в метрах. Внимание: облачность, как и прочие метеорологические величины в США измеряются автоматическими метеостанциями. Указанные значения в баллах носят условный характер и показывают процент времени, в течение которого, в среднем, лазерный луч высотомера отражался от облаков обратно.
T - Температура воздуха - температура, измеренная на высоте 2 м над землей.
Td - Температура точки росы - температура, при понижении до которой содержащийся в воздухе водяной пар достигнет насыщения.
f - Относительная влажность воздуха - влажноcть воздуха, измеренная на высоте 2 м над землей.
Te - Эффективная температура - температура, которую ощущает одетый по сезону человек в тени. Характеристика душности погоды. При расчете учитывается влияние влажности воздуха и скорости ветра на теплоощущения человека.
Tes - Эффективная температура на солнце - температура, которую ощущает человек, с поправкой на солнечный нагрев. Характеристика знойности погоды. Зависит от высоты солнца над горизонтом, облачности и скорости ветра. Ночью, в пасмурную погоду, а также при ветре 12 м/с и более поправка равна нулю.
P - Атмосферное давление - приведенное к уровню моря атмосферное давление.
Po - Атмосферное давление - измеренное на уровне метеостанции атмосферное давление.
Tmin - Минимальная температура - минимум температуры воздуха на высоте 2 м над землей.
Tmax - Максимальная температура - максимум температуры воздуха на высоте 2 м над землей.
R - Количество осадков - Количество выпавших осадков за 3 или 6 часов, мм.
SD - Снежный покров - Высота снежного покрова, см.